Time,TemperatureF,DewpointF,PressureIn,WindDirection,WindDirectionDegrees,WindSpeedMPH,WindSpeedGustMPH,Humidity,HourlyPrecipIn,Conditions,Clouds,dailyrainin,SoftwareType,DateUTC
2013-07-26 00:04:00,82.2,70.2,30.02,SE,142,4.0,4.0,67,0.00,,SKC,0.00,VWS V14.01,2013-07-26 05:04:00,
2013-07-26 00:09:00,82.1,70.5,30.02,SE,142,0.0,4.0,68,0.00,,SKC,0.00,VWS V14.01,2013-07-26 05:09:00,
2013-07-26 00:14:00,82.0,70.8,30.02,SE,144,4.0,10.0,69,0.00,,SKC,0.00,VWS V14.01,2013-07-26 05:14:00,
2013-07-26 00:19:00,81.8,70.6,30.02,SE,146,2.0,10.0,69,0.00,,SKC,0.00,VWS V14.01,2013-07-26 05:19:00,
2013-07-26 00:24:00,81.6,70.4,30.02,SSE,148,5.0,10.0,69,0.00,,SKC,0.00,VWS V14.01,2013-07-26 05:24:00,
2013-07-26 00:29:00,81.4,70.7,30.02,SE,145,3.0,10.0,70,0.00,,SKC,0.00,VWS V14.01,2013-07-26 05:29:00,
2013-07-26 00:34:00,81.2,70.5,30.02,SE,145,5.0,5.0,70,0.00,,SKC,0.00,VWS V14.01,2013-07-26 05:34:00,
2013-07-26 00:39:00,81.0,70.7,30.03,SE,144,2.0,7.0,71,0.00,,SKC,0.00,VWS V14.01,2013-07-26 05:39:00,
2013-07-26 00:44:00,80.9,70.6,30.03,SE,144,2.0,7.0,71,0.00,,SKC,0.00,VWS V14.01,2013-07-26 05:44:00,
2013-07-26 00:49:00,80.8,70.9,30.03,SE,144,3.0,7.0,72,0.00,,SKC,0.00,VWS V14.01,2013-07-26 05:49:00,
2013-07-26 00:54:00,80.6,71.2,30.03,SE,144,0.0,7.0,73,0.00,,SKC,0.00,VWS V14.01,2013-07-26 05:54:00,
2013-07-26 00:59:00,80.5,71.1,30.03,SE,144,4.0,7.0,73,0.00,,SKC,0.00,VWS V14.01,2013-07-26 05:59:00,
2013-07-26 01:04:00,80.4,71.4,30.02,SE,144,0.0,4.0,74,0.00,,SKC,0.00,VWS V14.01,2013-07-26 06:04:00,
2013-07-26 01:09:00,80.2,71.2,30.03,SE,144,0.0,5.0,74,0.00,,SKC,0.00,VWS V14.01,2013-07-26 06:09:00,
2013-07-26 01:14:00,80.1,71.5,30.03,SE,144,4.0,6.0,75,0.00,,SKC,0.00,VWS V14.01,2013-07-26 06:14:00,
2013-07-26 01:19:00,80.0,71.8,30.03,SE,144,0.0,6.0,76,0.00,,SKC,0.00,VWS V14.01,2013-07-26 06:19:00,
2013-07-26 01:24:00,79.8,71.6,30.03,SE,144,0.0,6.0,76,0.00,,SKC,0.00,VWS V14.01,2013-07-26 06:24:00,
2013-07-26 01:29:00,79.7,71.5,30.03,SE,144,0.0,6.0,76,0.00,,SKC,0.00,VWS V14.01,2013-07-26 06:29:00,
2013-07-26 01:34:00,79.6,71.8,30.04,SE,144,0.0,0.0,77,0.00,,SKC,0.00,VWS V14.01,2013-07-26 06:34:00,
2013-07-26 01:39:00,79.5,71.7,30.03,SE,144,0.0,0.0,77,0.00,,SKC,0.00,VWS V14.01,2013-07-26 06:39:00,
2013-07-26 01:44:00,79.4,71.6,30.03,SE,144,2.0,5.0,77,0.00,,SKC,0.00,VWS V14.01,2013-07-26 06:44:00,
2013-07-26 01:49:00,79.2,71.8,30.03,SE,144,0.0,5.0,78,0.00,,SKC,0.00,VWS V14.01,2013-07-26 06:49:00,
2013-07-26 01:54:00,79.1,71.7,30.02,SE,144,5.0,10.0,78,0.00,,SKC,0.00,VWS V14.01,2013-07-26 06:54:00,
2013-07-26 01:59:00,79.0,71.6,30.02,SE,144,4.0,10.0,78,0.00,,SKC,0.00,VWS V14.01,2013-07-26 06:59:00,
2013-07-26 02:04:00,78.9,71.8,30.02,SE,144,1.0,5.0,79,0.00,,SKC,0.00,VWS V14.01,2013-07-26 07:04:00,
2013-07-26 02:09:00,78.8,71.7,30.01,SE,144,4.0,5.0,79,0.00,,SKC,0.00,VWS V14.01,2013-07-26 07:09:00,
2013-07-26 02:14:00,78.7,71.6,30.01,SE,144,4.0,6.0,79,0.00,,SKC,0.00,VWS V14.01,2013-07-26 07:14:00,
2013-07-26 02:19:00,78.6,71.6,30.01,SE,146,7.0,10.0,79,0.00,,SKC,0.00,VWS V14.01,2013-07-26 07:19:00,
2013-07-26 02:24:00,78.6,71.6,30.01,SE,146,5.0,10.0,79,0.00,,SKC,0.00,VWS V14.01,2013-07-26 07:24:00,
2013-07-26 02:29:00,78.5,71.1,30.01,SE,146,6.0,10.0,78,0.00,,SKC,0.00,VWS V14.01,2013-07-26 07:29:00,
2013-07-26 02:34:00,78.5,71.1,30.01,SE,145,4.0,6.0,78,0.00,,SKC,0.00,VWS V14.01,2013-07-26 07:34:00,
2013-07-26 02:39:00,78.4,71.0,30.01,SSE,147,2.0,11.0,78,0.00,,SKC,0.00,VWS V14.01,2013-07-26 07:39:00,
2013-07-26 02:44:00,78.4,71.3,30.01,SE,146,6.0,11.0,79,0.00,,SKC,0.00,VWS V14.01,2013-07-26 07:44:00,
2013-07-26 02:49:00,78.4,71.3,30.01,SSE,155,2.0,11.0,79,0.00,,SKC,0.00,VWS V14.01,2013-07-26 07:49:00,
2013-07-26 02:54:00,78.3,71.3,30.01,SSE,157,1.0,11.0,79,0.00,,SKC,0.00,VWS V14.01,2013-07-26 07:54:00,
2013-07-26 02:59:00,78.2,71.2,30.01,SSE,157,0.0,11.0,79,0.00,,SKC,0.00,VWS V14.01,2013-07-26 07:59:00,
2013-07-26 03:04:00,78.2,71.2,30.01,SSE,158,3.0,5.0,79,0.00,,SKC,0.00,VWS V14.01,2013-07-26 08:04:00,
2013-07-26 03:09:00,78.1,71.4,30.00,SSE,159,3.0,12.0,80,0.00,,SKC,0.00,VWS V14.01,2013-07-26 08:09:00,
2013-07-26 03:14:00,78.0,71.3,30.00,SSE,159,2.0,12.0,80,0.00,,SKC,0.00,VWS V14.01,2013-07-26 08:14:00,
2013-07-26 03:19:00,77.9,71.2,30.00,SSE,161,4.0,12.0,80,0.00,,SKC,0.00,VWS V14.01,2013-07-26 08:19:00,
2013-07-26 03:24:00,77.8,71.5,30.00,SSE,160,5.0,12.0,81,0.00,,SKC,0.00,VWS V14.01,2013-07-26 08:24:00,
2013-07-26 03:29:00,77.7,71.4,30.00,SSE,161,1.0,12.0,81,0.00,,SKC,0.00,VWS V14.01,2013-07-26 08:29:00,
2013-07-26 03:34:00,77.7,71.4,30.00,SSE,161,2.0,5.0,81,0.00,,SKC,0.00,VWS V14.01,2013-07-26 08:34:00,
2013-07-26 03:39:00,77.6,71.7,30.00,SSE,160,3.0,9.0,82,0.00,,SKC,0.00,VWS V14.01,2013-07-26 08:39:00,
2013-07-26 03:44:00,77.5,71.6,30.00,SSE,160,0.0,9.0,82,0.00,,SKC,0.00,VWS V14.01,2013-07-26 08:44:00,
2013-07-26 03:49:00,77.4,71.5,30.00,SSE,160,1.0,9.0,82,0.00,,SKC,0.00,VWS V14.01,2013-07-26 08:49:00,
2013-07-26 03:54:00,77.4,71.8,30.00,SSE,160,2.0,9.0,83,0.00,,SKC,0.00,VWS V14.01,2013-07-26 08:54:00,
2013-07-26 03:59:00,77.3,71.7,30.00,SSE,160,0.0,9.0,83,0.00,,SKC,0.00,VWS V14.01,2013-07-26 08:59:00,
2013-07-26 04:04:00,77.2,71.6,30.00,SSE,160,0.0,3.0,83,0.00,,SKC,0.00,VWS V14.01,2013-07-26 09:04:00,
2013-07-26 04:09:00,77.1,71.5,30.00,SSE,160,2.0,4.0,83,0.00,,SKC,0.00,VWS V14.01,2013-07-26 09:09:00,
2013-07-26 04:14:00,77.1,71.9,30.00,SSE,160,0.0,4.0,84,0.00,,SKC,0.00,VWS V14.01,2013-07-26 09:14:00,
2013-07-26 04:19:00,77.0,71.8,30.00,SSE,160,0.0,4.0,84,0.00,,SKC,0.00,VWS V14.01,2013-07-26 09:19:00,
2013-07-26 04:24:00,76.9,71.7,30.00,SSE,160,0.0,4.0,84,0.00,,SKC,0.00,VWS V14.01,2013-07-26 09:24:00,
2013-07-26 04:29:00,76.8,71.6,30.00,SSE,160,0.0,4.0,84,0.00,,SKC,0.00,VWS V14.01,2013-07-26 09:29:00,
2013-07-26 04:34:00,76.8,71.9,30.00,SSE,160,0.0,1.0,85,0.00,,SKC,0.00,VWS V14.01,2013-07-26 09:34:00,
2013-07-26 04:39:00,76.7,71.9,29.99,SSE,160,2.0,6.0,85,0.00,,SKC,0.00,VWS V14.01,2013-07-26 09:39:00,
2013-07-26 04:44:00,76.7,71.9,29.99,SSE,159,2.0,6.0,85,0.00,,SKC,0.00,VWS V14.01,2013-07-26 09:44:00,
2013-07-26 04:49:00,76.6,72.1,29.99,SSE,159,0.0,6.0,86,0.00,,SKC,0.00,VWS V14.01,2013-07-26 09:49:00,
2013-07-26 04:54:00,76.6,72.1,30.00,SSE,159,4.0,6.0,86,0.00,,SKC,0.00,VWS V14.01,2013-07-26 09:54:00,
2013-07-26 04:59:00,76.5,72.0,30.00,SSE,159,4.0,6.0,86,0.00,,SKC,0.00,VWS V14.01,2013-07-26 09:59:00,
2013-07-26 05:04:00,76.5,72.3,30.00,SSE,159,0.0,3.0,87,0.00,,SKC,0.00,VWS V14.01,2013-07-26 10:04:00,
2013-07-26 05:09:00,76.4,72.2,30.00,SSE,159,0.0,7.0,87,0.00,,SKC,0.00,VWS V14.01,2013-07-26 10:09:00,
2013-07-26 05:14:00,76.4,72.2,30.00,SSE,159,0.0,7.0,87,0.00,,SKC,0.00,VWS V14.01,2013-07-26 10:14:00,
2013-07-26 05:19:00,76.3,72.2,30.00,SSE,159,1.0,7.0,87,0.00,,SKC,0.00,VWS V14.01,2013-07-26 10:19:00,
2013-07-26 05:24:00,76.3,72.2,30.00,SSE,160,0.0,7.0,87,0.00,,SKC,0.00,VWS V14.01,2013-07-26 10:24:00,
2013-07-26 05:29:00,76.2,72.1,30.00,SSE,160,0.0,7.0,87,0.00,,SKC,0.00,VWS V14.01,2013-07-26 10:29:00,
2013-07-26 05:34:00,76.2,72.1,30.00,SSE,161,0.0,5.0,87,0.00,,SKC,0.00,VWS V14.01,2013-07-26 10:34:00,
2013-07-26 05:39:00,76.2,72.4,30.00,SSE,161,0.0,5.0,88,0.00,,SKC,0.00,VWS V14.01,2013-07-26 10:39:00,
2013-07-26 05:44:00,76.1,72.3,30.00,SSE,161,4.0,5.0,88,0.00,,SKC,0.00,VWS V14.01,2013-07-26 10:44:00,
2013-07-26 05:49:00,76.0,72.2,30.00,SSE,161,3.0,5.0,88,0.00,,SKC,0.00,VWS V14.01,2013-07-26 10:49:00,
2013-07-26 05:54:00,76.0,72.2,30.00,SSE,161,0.0,5.0,88,0.00,,SKC,0.00,VWS V14.01,2013-07-26 10:54:00,
2013-07-26 05:59:00,76.0,72.2,30.00,SSE,161,2.0,6.0,88,0.00,,SKC,0.00,VWS V14.01,2013-07-26 10:59:00,
2013-07-26 06:04:00,75.9,72.1,30.00,SSE,160,4.0,6.0,88,0.00,,SKC,0.00,VWS V14.01,2013-07-26 11:04:00,
2013-07-26 06:09:00,75.9,72.1,30.00,SSE,160,1.0,6.0,88,0.00,,SKC,0.00,VWS V14.01,2013-07-26 11:09:00,
2013-07-26 06:14:00,75.9,72.4,30.00,SSE,163,0.0,6.0,89,0.00,,SKC,0.00,VWS V14.01,2013-07-26 11:14:00,
2013-07-26 06:19:00,75.8,72.3,30.00,SSE,163,0.0,6.0,89,0.00,,SKC,0.00,VWS V14.01,2013-07-26 11:19:00,
2013-07-26 06:24:00,75.8,72.3,30.00,SSE,163,2.0,6.0,89,0.00,,SKC,0.00,VWS V14.01,2013-07-26 11:24:00,
2013-07-26 06:29:00,75.7,72.2,30.00,SSE,163,1.0,6.0,89,0.00,,SKC,0.00,VWS V14.01,2013-07-26 11:29:00,
2013-07-26 06:34:00,75.7,72.2,30.00,SSE,163,0.0,2.0,89,0.00,,SKC,0.00,VWS V14.01,2013-07-26 11:34:00,
2013-07-26 06:39:00,75.7,72.2,30.00,SSE,165,2.0,7.0,89,0.00,,SKC,0.00,VWS V14.01,2013-07-26 11:39:00,
2013-07-26 06:44:00,75.6,72.5,30.00,SSE,165,2.0,7.0,90,0.00,,SKC,0.00,VWS V14.01,2013-07-26 11:44:00,
2013-07-26 06:49:00,75.6,72.5,30.01,SSE,166,3.0,7.0,90,0.00,,SKC,0.00,VWS V14.01,2013-07-26 11:49:00,
2013-07-26 06:54:00,75.6,72.5,30.01,SSE,166,4.0,7.0,90,0.00,,SKC,0.00,VWS V14.01,2013-07-26 11:54:00,
2013-07-26 06:59:00,75.6,72.5,30.01,South,169,3.0,7.0,90,0.00,,SKC,0.00,VWS V14.01,2013-07-26 11:59:00,
2013-07-26 07:04:00,75.6,72.5,30.01,South,169,2.0,6.0,90,0.00,,SKC,0.00,VWS V14.01,2013-07-26 12:04:00,
2013-07-26 07:09:00,75.6,72.5,30.01,South,169,4.0,6.0,90,0.00,,SKC,0.00,VWS V14.01,2013-07-26 12:09:00,
2013-07-26 07:14:00,75.6,72.5,30.01,South,169,4.0,6.0,90,0.00,,SKC,0.00,VWS V14.01,2013-07-26 12:14:00,
2013-07-26 07:19:00,75.7,72.6,30.01,South,169,0.0,6.0,90,0.00,,SKC,0.00,VWS V14.01,2013-07-26 12:19:00,
2013-07-26 07:24:00,75.7,72.6,30.01,South,169,0.0,6.0,90,0.00,,SKC,0.00,VWS V14.01,2013-07-26 12:24:00,
2013-07-26 07:29:00,75.7,72.6,30.01,South,171,2.0,7.0,90,0.00,,SKC,0.00,VWS V14.01,2013-07-26 12:29:00,
2013-07-26 07:34:00,75.8,72.7,30.01,South,173,3.0,7.0,90,0.00,,SKC,0.00,VWS V14.01,2013-07-26 12:34:00,
2013-07-26 07:39:00,75.8,72.7,30.02,SSE,167,2.0,7.0,90,0.00,,SKC,0.00,VWS V14.01,2013-07-26 12:39:00,
2013-07-26 07:44:00,75.9,72.8,30.02,SSE,166,2.0,7.0,90,0.00,,SKC,0.00,VWS V14.01,2013-07-26 12:44:00,
2013-07-26 07:49:00,76.0,72.9,30.02,South,170,1.0,7.0,90,0.00,,SKC,0.00,VWS V14.01,2013-07-26 12:49:00,
2013-07-26 07:54:00,76.0,72.9,30.02,SSE,166,3.0,7.0,90,0.00,,SKC,0.00,VWS V14.01,2013-07-26 12:54:00,
2013-07-26 07:59:00,76.1,73.0,30.02,SSE,166,3.0,8.0,90,0.00,,SKC,0.00,VWS V14.01,2013-07-26 12:59:00,
2013-07-26 08:04:00,76.2,72.7,30.02,SSE,161,1.0,9.0,89,0.00,,SKC,0.00,VWS V14.01,2013-07-26 13:04:00,
2013-07-26 08:09:00,76.3,72.8,30.02,South,171,2.0,10.0,89,0.00,,SKC,0.00,VWS V14.01,2013-07-26 13:09:00,
2013-07-26 08:14:00,76.4,72.9,30.02,South,171,0.0,10.0,89,0.00,,SKC,0.00,VWS V14.01,2013-07-26 13:14:00,
2013-07-26 08:19:00,76.5,73.0,30.01,SSE,167,5.0,10.0,89,0.00,,SKC,0.00,VWS V14.01,2013-07-26 13:19:00,
2013-07-26 08:24:00,76.7,73.2,30.02,SSE,167,5.0,10.0,89,0.00,,SKC,0.00,VWS V14.01,2013-07-26 13:24:00,
2013-07-26 08:29:00,76.8,73.3,30.02,SSE,167,3.0,10.0,89,0.00,,SKC,0.00,VWS V14.01,2013-07-26 13:29:00,
2013-07-26 08:34:00,76.9,73.1,30.02,South,169,3.0,7.0,88,0.00,,SKC,0.00,VWS V14.01,2013-07-26 13:34:00,
2013-07-26 08:39:00,77.0,73.2,30.02,SSE,165,2.0,8.0,88,0.00,,SKC,0.00,VWS V14.01,2013-07-26 13:39:00,
2013-07-26 08:44:00,77.1,73.3,30.02,SSE,167,4.0,8.0,88,0.00,,SKC,0.00,VWS V14.01,2013-07-26 13:44:00,
2013-07-26 08:49:00,77.2,73.4,30.02,SSE,167,3.0,8.0,88,0.00,,SKC,0.00,VWS V14.01,2013-07-26 13:49:00,
2013-07-26 08:54:00,77.3,73.1,30.02,South,174,2.0,9.0,87,0.00,,SKC,0.00,VWS V14.01,2013-07-26 13:54:00,
2013-07-26 08:59:00,77.4,73.2,30.02,South,186,3.0,11.0,87,0.00,,SKC,0.00,VWS V14.01,2013-07-26 13:59:00,
2013-07-26 09:04:00,77.5,73.3,30.02,South,169,6.0,6.0,87,0.00,,SKC,0.00,VWS V14.01,2013-07-26 14:04:00,
2013-07-26 09:09:00,77.6,73.4,30.03,SW,225,1.0,7.0,87,0.00,,SKC,0.00,VWS V14.01,2013-07-26 14:09:00,
2013-07-26 09:14:00,77.7,73.2,30.03,South,188,3.0,8.0,86,0.00,,SKC,0.00,VWS V14.01,2013-07-26 14:14:00,
2013-07-26 09:19:00,78.0,73.8,30.03,South,191,5.0,8.0,87,0.00,,SKC,0.00,VWS V14.01,2013-07-26 14:19:00,
2013-07-26 09:24:00,78.2,73.7,30.03,South,186,0.0,8.0,86,0.00,,SKC,0.00,VWS V14.01,2013-07-26 14:24:00,
2013-07-26 09:29:00,78.4,73.5,30.03,South,182,5.0,8.0,85,0.00,,SKC,0.00,VWS V14.01,2013-07-26 14:29:00,
2013-07-26 09:34:00,78.5,73.6,30.03,South,171,2.0,5.0,85,0.00,,SKC,0.00,VWS V14.01,2013-07-26 14:34:00,
2013-07-26 09:39:00,78.6,73.7,30.03,South,173,1.0,6.0,85,0.00,,SKC,0.00,VWS V14.01,2013-07-26 14:39:00,
2013-07-26 09:44:00,78.8,73.9,30.02,South,175,3.0,6.0,85,0.00,,SKC,0.00,VWS V14.01,2013-07-26 14:44:00,
2013-07-26 09:49:00,79.1,73.8,30.02,South,175,3.0,6.0,84,0.00,,SKC,0.00,VWS V14.01,2013-07-26 14:49:00,
2013-07-26 09:54:00,79.3,74.1,30.02,South,180,3.0,7.0,84,0.00,,SKC,0.00,VWS V14.01,2013-07-26 14:54:00,
2013-07-26 09:59:00,79.4,73.4,30.02,South,190,7.0,9.0,82,0.00,,SKC,0.00,VWS V14.01,2013-07-26 14:59:00,
2013-07-26 10:03:00,79.6,73.6,30.03,SSE,157,6.0,12.0,82,0.00,,SKC,0.00,VWS V14.01,2013-07-26 15:03:00,
2013-07-26 10:08:00,79.7,73.7,30.02,South,189,4.0,12.0,82,0.00,,SKC,0.00,VWS V14.01,2013-07-26 15:08:00,
2013-07-26 10:14:00,79.8,73.4,30.03,SSW,196,1.0,12.0,81,0.00,,SKC,0.00,VWS V14.01,2013-07-26 15:14:00,
2013-07-26 10:19:00,79.9,73.6,30.03,SSW,205,6.0,12.0,81,0.00,,SKC,0.00,VWS V14.01,2013-07-26 15:19:00,
2013-07-26 10:24:00,80.0,73.7,30.03,SSW,194,6.0,12.0,81,0.00,,SKC,0.00,VWS V14.01,2013-07-26 15:24:00,
2013-07-26 10:29:00,80.3,73.9,30.03,South,188,2.0,12.0,81,0.00,,SKC,0.00,VWS V14.01,2013-07-26 15:29:00,
2013-07-26 10:34:00,80.5,73.8,30.03,SSW,200,1.0,6.0,80,0.00,,SKC,0.00,VWS V14.01,2013-07-26 15:34:00,
2013-07-26 10:39:00,80.8,74.1,30.03,South,186,3.0,8.0,80,0.00,,SKC,0.00,VWS V14.01,2013-07-26 15:39:00,
2013-07-26 10:44:00,81.4,74.3,30.03,South,188,4.0,8.0,79,0.00,,SKC,0.00,VWS V14.01,2013-07-26 15:44:00,
2013-07-26 10:49:00,81.8,74.3,30.03,South,182,0.0,8.0,78,0.00,,SKC,0.00,VWS V14.01,2013-07-26 15:49:00,
2013-07-26 10:54:00,82.3,74.4,30.03,South,180,4.0,9.0,77,0.00,,SKC,0.00,VWS V14.01,2013-07-26 15:54:00,
2013-07-26 10:59:00,82.8,74.5,30.03,SSW,194,3.0,9.0,76,0.00,,SKC,0.00,VWS V14.01,2013-07-26 15:59:00,
2013-07-26 11:04:00,83.2,74.5,30.03,SSW,193,0.0,4.0,75,0.00,,SKC,0.00,VWS V14.01,2013-07-26 16:04:00,
2013-07-26 11:09:00,83.5,74.3,30.03,South,190,5.0,6.0,74,0.00,,SKC,0.00,VWS V14.01,2013-07-26 16:09:00,
2013-07-26 11:14:00,84.0,74.4,30.03,South,185,2.0,7.0,73,0.00,,SKC,0.00,VWS V14.01,2013-07-26 16:14:00,
2013-07-26 11:19:00,84.6,74.6,30.03,South,185,2.0,7.0,72,0.00,,SKC,0.00,VWS V14.01,2013-07-26 16:19:00,
2013-07-26 11:24:00,84.9,74.9,30.02,SSW,194,1.0,11.0,72,0.00,,SKC,0.00,VWS V14.01,2013-07-26 16:24:00,
2013-07-26 11:29:00,85.2,74.7,30.02,SSW,196,2.0,11.0,71,0.00,,SKC,0.00,VWS V14.01,2013-07-26 16:29:00,
2013-07-26 11:34:00,85.4,74.5,30.02,SSW,194,1.0,6.0,70,0.00,,SKC,0.00,VWS V14.01,2013-07-26 16:34:00,
2013-07-26 11:39:00,85.5,74.6,30.02,SSW,198,5.0,6.0,70,0.00,,SKC,0.00,VWS V14.01,2013-07-26 16:39:00,
2013-07-26 11:44:00,85.6,74.3,30.02,SSW,201,5.0,10.0,69,0.00,,SKC,0.00,VWS V14.01,2013-07-26 16:44:00,
2013-07-26 11:49:00,85.7,74.8,30.02,SSW,203,1.0,10.0,70,0.00,,SKC,0.00,VWS V14.01,2013-07-26 16:49:00,
2013-07-26 11:54:00,85.9,75.0,30.02,SSW,202,5.0,10.0,70,0.00,,SKC,0.00,VWS V14.01,2013-07-26 16:54:00,
2013-07-26 11:59:00,86.4,75.0,30.01,SSW,209,2.0,10.0,69,0.00,,SKC,0.00,VWS V14.01,2013-07-26 16:59:00,
2013-07-26 12:00:00,86.7,74.9,30.01,SSW,209,0.0,10.0,68,0.00,,SKC,0.00,VWS V14.01,2013-07-26 17:00:00,
2013-07-26 12:04:00,87.0,75.2,30.01,SSW,196,0.0,0.0,68,0.00,,SKC,0.00,VWS V14.01,2013-07-26 17:04:00,
2013-07-26 12:09:00,87.5,75.2,30.01,SSW,192,0.0,6.0,67,0.00,,SKC,0.00,VWS V14.01,2013-07-26 17:09:00,
2013-07-26 12:14:00,87.8,75.0,30.01,South,175,3.0,9.0,66,0.00,,SKC,0.00,VWS V14.01,2013-07-26 17:14:00,
2013-07-26 12:19:00,88.0,75.2,30.01,South,172,2.0,9.0,66,0.00,,SKC,0.00,VWS V14.01,2013-07-26 17:19:00,
2013-07-26 12:24:00,88.1,75.3,30.00,South,184,0.0,9.0,66,0.00,,SKC,0.00,VWS V14.01,2013-07-26 17:24:00,
2013-07-26 12:29:00,88.4,75.1,30.00,South,186,0.0,9.0,65,0.00,,SKC,0.00,VWS V14.01,2013-07-26 17:29:00,
2013-07-26 12:30:00,88.5,74.8,30.00,South,171,5.0,9.0,64,0.00,,SKC,0.00,VWS V14.01,2013-07-26 17:30:00,
2013-07-26 12:34:00,88.5,74.8,30.00,South,180,5.0,8.0,64,0.00,,SKC,0.00,VWS V14.01,2013-07-26 17:34:00,
2013-07-26 12:39:00,88.4,74.7,30.00,South,189,2.0,9.0,64,0.00,,SKC,0.00,VWS V14.01,2013-07-26 17:39:00,
2013-07-26 12:44:00,88.4,74.7,30.00,South,190,5.0,9.0,64,0.00,,SKC,0.00,VWS V14.01,2013-07-26 17:44:00,
2013-07-26 12:49:00,88.7,75.0,30.00,South,188,2.0,9.0,64,0.00,,SKC,0.00,VWS V14.01,2013-07-26 17:49:00,
2013-07-26 12:54:00,89.1,75.8,30.00,South,189,6.0,10.0,65,0.00,,SKC,0.00,VWS V14.01,2013-07-26 17:54:00,
2013-07-26 12:59:00,89.3,75.1,29.99,South,177,3.0,10.0,63,0.00,,SKC,0.00,VWS V14.01,2013-07-26 17:59:00,
2013-07-26 13:00:00,89.5,75.2,29.99,South,178,2.0,10.0,63,0.00,,SKC,0.00,VWS V14.01,2013-07-26 18:00:00,
2013-07-26 13:04:00,89.6,74.9,29.99,South,183,4.0,7.0,62,0.00,,SKC,0.00,VWS V14.01,2013-07-26 18:04:00,
2013-07-26 13:09:00,89.8,74.6,29.99,South,179,0.0,8.0,61,0.00,,SKC,0.00,VWS V14.01,2013-07-26 18:09:00,
2013-07-26 13:14:00,89.9,74.2,29.99,South,177,0.0,8.0,60,0.00,,SKC,0.00,VWS V14.01,2013-07-26 18:14:00,
2013-07-26 13:19:00,90.0,74.8,29.99,South,177,0.0,8.0,61,0.00,,SKC,0.00,VWS V14.01,2013-07-26 18:19:00,
2013-07-26 13:24:00,90.3,75.0,29.98,South,177,0.0,8.0,61,0.00,,SKC,0.00,VWS V14.01,2013-07-26 18:24:00,
2013-07-26 13:29:00,90.6,75.3,29.98,South,177,1.0,8.0,61,0.00,,SKC,0.00,VWS V14.01,2013-07-26 18:29:00,
2013-07-26 13:30:00,90.7,74.9,29.98,South,176,3.0,8.0,60,0.00,,SKC,0.00,VWS V14.01,2013-07-26 18:30:00,
2013-07-26 13:34:00,90.8,75.5,29.98,South,171,0.0,7.0,61,0.00,,SKC,0.00,VWS V14.01,2013-07-26 18:34:00,
2013-07-26 13:39:00,90.9,75.6,29.98,South,171,2.0,7.0,61,0.00,,SKC,0.00,VWS V14.01,2013-07-26 18:39:00,
2013-07-26 13:44:00,91.3,75.0,29.98,SSW,193,4.0,10.0,59,0.00,,SKC,0.00,VWS V14.01,2013-07-26 18:44:00,
2013-07-26 13:49:00,91.6,74.7,29.97,South,182,0.0,10.0,58,0.00,,SKC,0.00,VWS V14.01,2013-07-26 18:49:00,
2013-07-26 13:54:00,91.9,74.5,29.97,South,181,4.0,10.0,57,0.00,,SKC,0.00,VWS V14.01,2013-07-26 18:54:00,
2013-07-26 13:59:00,92.1,74.2,29.97,South,182,5.0,10.0,56,0.00,,SKC,0.00,VWS V14.01,2013-07-26 18:59:00,
2013-07-26 14:00:00,92.2,74.2,29.97,South,182,1.0,10.0,56,0.00,,SKC,0.00,VWS V14.01,2013-07-26 19:00:00,
2013-07-26 14:04:00,92.5,75.1,29.97,South,182,3.0,5.0,57,0.00,,SKC,0.00,VWS V14.01,2013-07-26 19:04:00,
2013-07-26 14:09:00,92.8,75.9,29.97,South,188,2.0,5.0,58,0.00,,SKC,0.00,VWS V14.01,2013-07-26 19:09:00,
2013-07-26 14:14:00,92.9,74.9,29.96,South,189,0.0,5.0,56,0.00,,SKC,0.00,VWS V14.01,2013-07-26 19:14:00,
2013-07-26 14:19:00,93.5,75.5,29.96,SSW,196,6.0,6.0,56,0.00,,SKC,0.00,VWS V14.01,2013-07-26 19:19:00,
2013-07-26 14:24:00,94.0,74.3,29.96,SSW,195,4.0,11.0,53,0.00,,SKC,0.00,VWS V14.01,2013-07-26 19:24:00,
2013-07-26 14:29:00,94.2,74.5,29.96,SSW,196,4.0,11.0,53,0.00,,SKC,0.00,VWS V14.01,2013-07-26 19:29:00,
2013-07-26 14:30:00,94.2,74.5,29.95,SSW,196,3.0,11.0,53,0.00,,SKC,0.00,VWS V14.01,2013-07-26 19:30:00,
2013-07-26 14:34:00,94.3,74.6,29.95,South,186,2.0,7.0,53,0.00,,SKC,0.00,VWS V14.01,2013-07-26 19:34:00,
2013-07-26 14:39:00,94.3,74.0,29.95,South,174,3.0,9.0,52,0.00,,SKC,0.00,VWS V14.01,2013-07-26 19:39:00,
2013-07-26 14:44:00,94.4,74.1,29.95,South,174,3.0,9.0,52,0.00,,SKC,0.00,VWS V14.01,2013-07-26 19:44:00,
2013-07-26 14:49:00,94.7,74.3,29.95,South,171,3.0,9.0,52,0.00,,SKC,0.00,VWS V14.01,2013-07-26 19:49:00,
2013-07-26 14:54:00,94.9,73.4,29.95,South,178,0.0,9.0,50,0.00,,SKC,0.00,VWS V14.01,2013-07-26 19:54:00,
2013-07-26 14:59:00,95.4,74.4,29.94,SSW,202,7.0,12.0,51,0.00,,SKC,0.00,VWS V14.01,2013-07-26 19:59:00,
2013-07-26 15:00:00,95.5,73.3,29.95,SSW,196,2.0,12.0,49,0.00,,SKC,0.00,VWS V14.01,2013-07-26 20:00:00,
2013-07-26 15:04:00,95.4,72.6,29.94,South,188,3.0,10.0,48,0.00,,SKC,0.00,VWS V14.01,2013-07-26 20:04:00,
2013-07-26 15:09:00,95.5,72.7,29.94,SSW,193,1.0,10.0,48,0.00,,SKC,0.00,VWS V14.01,2013-07-26 20:09:00,
2013-07-26 15:14:00,95.7,72.3,29.94,SSW,200,9.0,12.0,47,0.00,,SKC,0.00,VWS V14.01,2013-07-26 20:14:00,
2013-07-26 15:19:00,95.7,72.3,29.94,SSW,194,10.0,12.0,47,0.00,,SKC,0.00,VWS V14.01,2013-07-26 20:19:00,
2013-07-26 15:24:00,95.8,70.4,29.93,South,189,6.0,12.0,44,0.00,,SKC,0.00,VWS V14.01,2013-07-26 20:24:00,
2013-07-26 15:29:00,95.9,72.4,29.93,SSW,204,0.0,12.0,47,0.00,,SKC,0.00,VWS V14.01,2013-07-26 20:29:00,
2013-07-26 15:30:00,96.0,71.2,29.94,SSW,212,3.0,14.0,45,0.00,,SKC,0.00,VWS V14.01,2013-07-26 20:30:00,
2013-07-26 15:34:00,96.1,70.7,29.94,SSW,212,7.0,13.0,44,0.00,,SKC,0.00,VWS V14.01,2013-07-26 20:34:00,
2013-07-26 15:39:00,96.1,70.0,29.93,SSW,213,4.0,13.0,43,0.00,,SKC,0.00,VWS V14.01,2013-07-26 20:39:00,
2013-07-26 15:44:00,96.2,72.1,29.93,SSE,159,4.0,13.0,46,0.00,,SKC,0.00,VWS V14.01,2013-07-26 20:44:00,
2013-07-26 15:49:00,96.6,73.1,29.93,South,169,3.0,13.0,47,0.00,,SKC,0.00,VWS V14.01,2013-07-26 20:49:00,
2013-07-26 15:54:00,96.9,72.1,29.93,SSW,210,4.0,13.0,45,0.00,,SKC,0.00,VWS V14.01,2013-07-26 20:54:00,
2013-07-26 15:59:00,96.9,70.0,29.92,SSW,197,4.0,13.0,42,0.00,,SKC,0.00,VWS V14.01,2013-07-26 20:59:00,
2013-07-26 16:00:00,96.9,72.1,29.92,SSW,197,3.0,13.0,45,0.00,,SKC,0.00,VWS V14.01,2013-07-26 21:00:00,
2013-07-26 16:04:00,97.0,72.2,29.92,SSW,202,5.0,6.0,45,0.00,,SKC,0.00,VWS V14.01,2013-07-26 21:04:00,
2013-07-26 16:09:00,97.1,72.2,29.92,SSW,198,9.0,11.0,45,0.00,,SKC,0.00,VWS V14.01,2013-07-26 21:09:00,
2013-07-26 16:14:00,97.1,70.9,29.92,SSW,198,2.0,12.0,43,0.00,,SKC,0.00,VWS V14.01,2013-07-26 21:14:00,
2013-07-26 16:19:00,97.2,71.0,29.92,SSW,195,4.0,12.0,43,0.00,,SKC,0.00,VWS V14.01,2013-07-26 21:19:00,
2013-07-26 16:24:00,97.1,71.6,29.92,SSW,196,0.0,12.0,44,0.00,,SKC,0.00,VWS V14.01,2013-07-26 21:24:00,
2013-07-26 16:29:00,97.3,71.1,29.92,SSW,196,6.0,12.0,43,0.00,,SKC,0.00,VWS V14.01,2013-07-26 21:29:00,
2013-07-26 16:30:00,97.4,71.8,29.91,SSW,201,2.0,12.0,44,0.00,,SKC,0.00,VWS V14.01,2013-07-26 21:30:00,
2013-07-26 16:34:00,97.3,71.8,29.91,SSW,192,1.0,6.0,44,0.00,,SKC,0.00,VWS V14.01,2013-07-26 21:34:00,
2013-07-26 16:39:00,97.3,71.1,29.91,SSW,202,6.0,11.0,43,0.00,,SKC,0.00,VWS V14.01,2013-07-26 21:39:00,
2013-07-26 16:44:00,97.3,70.4,29.91,South,186,6.0,11.0,42,0.00,,SKC,0.00,VWS V14.01,2013-07-26 21:44:00,
2013-07-26 16:49:00,97.1,70.2,29.91,South,181,4.0,11.0,42,0.00,,SKC,0.00,VWS V14.01,2013-07-26 21:49:00,
2013-07-26 16:54:00,97.1,71.6,29.91,SSW,199,0.0,11.0,44,0.00,,SKC,0.00,VWS V14.01,2013-07-26 21:54:00,
2013-07-26 16:59:00,97.3,73.1,29.91,SSW,213,6.0,11.0,46,0.00,,SKC,0.00,VWS V14.01,2013-07-26 21:59:00,
2013-07-26 17:00:00,97.4,72.5,29.91,SSW,213,4.0,11.0,45,0.00,,SKC,0.00,VWS V14.01,2013-07-26 22:00:00,
2013-07-26 17:04:00,97.4,71.8,29.91,SW,217,6.0,7.0,44,0.00,,SKC,0.00,VWS V14.01,2013-07-26 22:04:00,
2013-07-26 17:09:00,97.5,72.6,29.91,SW,216,6.0,7.0,45,0.00,,SKC,0.00,VWS V14.01,2013-07-26 22:09:00,
2013-07-26 17:14:00,97.4,71.2,29.90,South,186,3.0,10.0,43,0.00,,SKC,0.00,VWS V14.01,2013-07-26 22:14:00,
2013-07-26 17:19:00,97.0,70.8,29.90,SSE,149,1.0,11.0,43,0.00,,SKC,0.00,VWS V14.01,2013-07-26 22:19:00,
2013-07-26 17:24:00,96.6,70.4,29.90,SSE,148,0.0,11.0,43,0.00,,SKC,0.00,VWS V14.01,2013-07-26 22:24:00,
2013-07-26 17:29:00,96.4,70.3,29.90,South,188,7.0,11.0,43,0.00,,SKC,0.00,VWS V14.01,2013-07-26 22:29:00,
2013-07-26 17:30:00,96.3,70.2,29.90,South,188,1.0,11.0,43,0.00,,SKC,0.00,VWS V14.01,2013-07-26 22:30:00,
2013-07-26 17:34:00,96.3,70.9,29.89,SSW,196,2.0,11.0,44,0.00,,SKC,0.00,VWS V14.01,2013-07-26 22:34:00,
2013-07-26 17:39:00,96.3,70.2,29.89,SSE,167,1.0,11.0,43,0.00,,SKC,0.00,VWS V14.01,2013-07-26 22:39:00,
2013-07-26 17:44:00,96.3,67.3,29.89,SE,142,6.0,11.0,39,0.00,,SKC,0.00,VWS V14.01,2013-07-26 22:44:00,
2013-07-26 17:49:00,96.3,68.8,29.88,SSW,192,0.0,11.0,41,0.00,,SKC,0.00,VWS V14.01,2013-07-26 22:49:00,
2013-07-26 17:54:00,96.4,69.6,29.88,SSE,153,3.0,11.0,42,0.00,,SKC,0.00,VWS V14.01,2013-07-26 22:54:00,
2013-07-26 17:59:00,96.4,68.9,29.88,SSW,201,2.0,11.0,41,0.00,,SKC,0.00,VWS V14.01,2013-07-26 22:59:00,
2013-07-26 18:00:00,96.5,69.7,29.88,SSW,201,3.0,11.0,42,0.00,,SKC,0.00,VWS V14.01,2013-07-26 23:00:00,
2013-07-26 18:04:00,96.5,69.0,29.88,SSW,200,5.0,10.0,41,0.00,,SKC,0.00,VWS V14.01,2013-07-26 23:04:00,
2013-07-26 18:09:00,96.6,69.8,29.88,SSE,155,0.0,10.0,42,0.00,,SKC,0.00,VWS V14.01,2013-07-26 23:09:00,
2013-07-26 18:14:00,96.5,70.4,29.88,SSE,153,0.0,10.0,43,0.00,,SKC,0.00,VWS V14.01,2013-07-26 23:14:00,
2013-07-26 18:19:00,96.4,70.3,29.88,SSE,155,4.0,10.0,43,0.00,,SKC,0.00,VWS V14.01,2013-07-26 23:19:00,
2013-07-26 18:24:00,96.2,69.4,29.87,SSE,168,3.0,10.0,42,0.00,,SKC,0.00,VWS V14.01,2013-07-26 23:24:00,
2013-07-26 18:29:00,96.1,68.6,29.87,South,175,3.0,10.0,41,0.00,,SKC,0.00,VWS V14.01,2013-07-26 23:29:00,
2013-07-26 18:30:00,96.1,68.6,29.87,South,179,3.0,10.0,41,0.00,,SKC,0.00,VWS V14.01,2013-07-26 23:30:00,
2013-07-26 18:34:00,96.0,68.5,29.87,South,176,3.0,5.0,41,0.00,,SKC,0.00,VWS V14.01,2013-07-26 23:34:00,
2013-07-26 18:39:00,95.9,69.1,29.87,South,177,3.0,9.0,42,0.00,,SKC,0.00,VWS V14.01,2013-07-26 23:39:00,
2013-07-26 18:44:00,95.7,69.6,29.87,South,177,3.0,9.0,43,0.00,,SKC,0.00,VWS V14.01,2013-07-26 23:44:00,
2013-07-26 18:49:00,95.4,69.4,29.87,SSE,167,2.0,9.0,43,0.00,,SKC,0.00,VWS V14.01,2013-07-26 23:49:00,
2013-07-26 18:54:00,95.1,69.8,29.87,SSE,167,4.0,9.0,44,0.00,,SKC,0.00,VWS V14.01,2013-07-26 23:54:00,
2013-07-26 18:59:00,94.8,69.5,29.87,South,178,2.0,10.0,44,0.00,,SKC,0.00,VWS V14.01,2013-07-26 23:59:00,
2013-07-26 19:00:00,94.7,69.4,29.87,SSE,165,3.0,10.0,44,0.00,,SKC,0.00,VWS V14.01,2013-07-27 00:00:00,
2013-07-26 19:04:00,94.7,70.1,29.87,South,169,6.0,6.0,45,0.00,,SKC,0.00,VWS V14.01,2013-07-27 00:04:00,
2013-07-26 19:09:00,94.6,70.0,29.87,South,173,0.0,9.0,45,0.00,,SKC,0.00,VWS V14.01,2013-07-27 00:09:00,
2013-07-26 19:14:00,94.4,70.4,29.87,South,173,3.0,9.0,46,0.00,,SKC,0.00,VWS V14.01,2013-07-27 00:14:00,
2013-07-26 19:19:00,94.2,70.3,29.87,South,173,0.0,9.0,46,0.00,,SKC,0.00,VWS V14.01,2013-07-27 00:19:00,
2013-07-26 19:24:00,93.9,70.6,29.87,South,173,0.0,9.0,47,0.00,,SKC,0.00,VWS V14.01,2013-07-27 00:24:00,
2013-07-26 19:29:00,93.8,70.5,29.87,South,173,2.0,9.0,47,0.00,,SKC,0.00,VWS V14.01,2013-07-27 00:29:00,
2013-07-26 19:30:00,93.7,70.4,29.87,South,173,3.0,9.0,47,0.00,,SKC,0.00,VWS V14.01,2013-07-27 00:30:00,
2013-07-26 19:34:00,93.6,70.3,29.87,South,175,7.0,7.0,47,0.00,,SKC,0.00,VWS V14.01,2013-07-27 00:34:00,
2013-07-26 19:39:00,93.5,70.9,29.87,South,176,5.0,7.0,48,0.00,,SKC,0.00,VWS V14.01,2013-07-27 00:39:00,
2013-07-26 19:44:00,93.4,70.8,29.87,South,178,0.0,7.0,48,0.00,,SKC,0.00,VWS V14.01,2013-07-27 00:44:00,
2013-07-26 19:49:00,93.2,71.2,29.87,South,178,0.0,7.0,49,0.00,,SKC,0.00,VWS V14.01,2013-07-27 00:49:00,
2013-07-26 19:54:00,93.1,71.1,29.87,South,176,5.0,7.0,49,0.00,,SKC,0.00,VWS V14.01,2013-07-27 00:54:00,
2013-07-26 19:59:00,92.9,70.9,29.87,South,171,5.0,7.0,49,0.00,,SKC,0.00,VWS V14.01,2013-07-27 00:59:00,
2013-07-26 20:00:00,92.9,71.5,29.87,South,171,0.0,7.0,50,0.00,,SKC,0.00,VWS V14.01,2013-07-27 01:00:00,
2013-07-26 20:04:00,92.8,70.2,29.88,South,171,0.0,6.0,48,0.00,,SKC,0.00,VWS V14.01,2013-07-27 01:04:00,
2013-07-26 20:09:00,92.7,71.3,29.88,South,169,0.0,6.0,50,0.00,,SKC,0.00,VWS V14.01,2013-07-27 01:09:00,
2013-07-26 20:14:00,92.6,71.3,29.88,South,169,0.0,6.0,50,0.00,,SKC,0.00,VWS V14.01,2013-07-27 01:14:00,
2013-07-26 20:19:00,92.5,71.2,29.87,South,169,0.0,6.0,50,0.00,,SKC,0.00,VWS V14.01,2013-07-27 01:19:00,
2013-07-26 20:24:00,92.3,71.0,29.88,South,169,3.0,6.0,50,0.00,,SKC,0.00,VWS V14.01,2013-07-27 01:24:00,
2013-07-26 20:29:00,92.2,70.9,29.88,South,169,4.0,7.0,50,0.00,,SKC,0.00,VWS V14.01,2013-07-27 01:29:00,
2013-07-26 20:30:00,92.1,70.8,29.88,South,169,3.0,7.0,50,0.00,,SKC,0.00,VWS V14.01,2013-07-27 01:30:00,
2013-07-26 20:34:00,92.0,70.7,29.88,SSE,168,6.0,6.0,50,0.00,,SKC,0.00,VWS V14.01,2013-07-27 01:34:00,
2013-07-26 20:39:00,91.9,70.6,29.88,SSE,164,4.0,9.0,50,0.00,,SKC,0.00,VWS V14.01,2013-07-27 01:39:00,
2013-07-26 20:44:00,91.7,70.4,29.88,SE,136,2.0,9.0,50,0.00,,SKC,0.00,VWS V14.01,2013-07-27 01:44:00,
2013-07-26 20:49:00,91.5,69.7,29.88,SE,146,7.0,12.0,49,0.00,,SKC,0.00,VWS V14.01,2013-07-27 01:49:00,
2013-07-26 20:54:00,91.4,69.6,29.88,SE,146,5.0,13.0,49,0.00,,SKC,0.00,VWS V14.01,2013-07-27 01:54:00,
2013-07-26 20:59:00,91.3,69.5,29.88,SE,138,5.0,13.0,49,0.00,,SKC,0.00,VWS V14.01,2013-07-27 01:59:00,
2013-07-26 21:00:00,91.3,69.5,29.88,SE,140,0.0,13.0,49,0.00,,SKC,0.00,VWS V14.01,2013-07-27 02:00:00,
2013-07-26 21:04:00,91.2,69.4,29.88,SE,143,0.0,10.0,49,0.00,,SKC,0.00,VWS V14.01,2013-07-27 02:04:00,
2013-07-26 21:09:00,91.1,69.3,29.89,SE,142,1.0,10.0,49,0.00,,SKC,0.00,VWS V14.01,2013-07-27 02:09:00,
2013-07-26 21:14:00,91.0,69.8,29.89,SE,144,3.0,11.0,50,0.00,,SKC,0.00,VWS V14.01,2013-07-27 02:14:00,
2013-07-26 21:19:00,90.8,69.6,29.89,SE,144,4.0,11.0,50,0.00,,SKC,0.00,VWS V14.01,2013-07-27 02:19:00,
2013-07-26 21:24:00,90.7,72.9,29.89,SSE,157,7.0,18.0,56,0.00,,SKC,0.00,VWS V14.01,2013-07-27 02:24:00,
2013-07-26 21:29:00,90.3,73.5,29.89,SSE,158,7.0,18.0,58,0.00,,SKC,0.00,VWS V14.01,2013-07-27 02:29:00,
2013-07-26 21:30:00,90.1,73.8,29.89,SSE,148,10.0,18.0,59,0.00,,SKC,0.00,VWS V14.01,2013-07-27 02:30:00,
2013-07-26 21:34:00,89.8,74.6,29.89,SSE,155,4.0,10.0,61,0.00,,SKC,0.00,VWS V14.01,2013-07-27 02:34:00,
2013-07-26 21:39:00,89.4,75.2,29.89,SSE,147,7.0,13.0,63,0.00,,SKC,0.00,VWS V14.01,2013-07-27 02:39:00,
2013-07-26 21:44:00,88.9,75.6,29.90,SE,143,8.0,17.0,65,0.00,,SKC,0.00,VWS V14.01,2013-07-27 02:44:00,
2013-07-26 21:49:00,88.4,76.1,29.90,SE,146,15.0,17.0,67,0.00,,SKC,0.00,VWS V14.01,2013-07-27 02:49:00,
2013-07-26 21:54:00,88.0,76.1,29.90,SSE,157,7.0,17.0,68,0.00,,SKC,0.00,VWS V14.01,2013-07-27 02:54:00,
2013-07-26 21:59:00,87.7,75.8,29.90,SSE,166,5.0,17.0,68,0.00,,SKC,0.00,VWS V14.01,2013-07-27 02:59:00,
2013-07-26 22:00:00,87.6,76.2,29.90,SE,141,6.0,17.0,69,0.00,,SKC,0.00,VWS V14.01,2013-07-27 03:00:00,
2013-07-26 22:04:00,87.4,76.0,29.90,SSE,153,3.0,14.0,69,0.00,,SKC,0.00,VWS V14.01,2013-07-27 03:04:00,
2013-07-26 22:09:00,87.2,76.2,29.90,SE,142,10.0,18.0,70,0.00,,SKC,0.00,VWS V14.01,2013-07-27 03:09:00,
2013-07-26 22:14:00,87.0,76.0,29.91,South,173,7.0,18.0,70,0.00,,SKC,0.00,VWS V14.01,2013-07-27 03:14:00,
2013-07-26 22:19:00,86.8,76.3,29.91,SSE,149,5.0,18.0,71,0.00,,SKC,0.00,VWS V14.01,2013-07-27 03:19:00,
2013-07-26 22:24:00,86.6,76.1,29.91,SE,141,9.0,18.0,71,0.00,,SKC,0.00,VWS V14.01,2013-07-27 03:24:00,
2013-07-26 22:29:00,86.4,75.9,29.91,SSE,148,4.0,18.0,71,0.00,,SKC,0.00,VWS V14.01,2013-07-27 03:29:00,
2013-07-26 22:30:00,86.3,75.8,29.92,SE,142,4.0,18.0,71,0.00,,SKC,0.00,VWS V14.01,2013-07-27 03:30:00,
2013-07-26 22:34:00,86.2,75.7,29.92,SE,144,9.0,10.0,71,0.00,,SKC,0.00,VWS V14.01,2013-07-27 03:34:00,
2013-07-26 22:39:00,86.0,75.9,29.92,SE,144,6.0,12.0,72,0.00,,SKC,0.00,VWS V14.01,2013-07-27 03:39:00,
2013-07-26 22:44:00,85.7,75.6,29.93,SE,140,4.0,12.0,72,0.00,,SKC,0.00,VWS V14.01,2013-07-27 03:44:00,
2013-07-26 22:49:00,85.4,75.3,29.93,SE,146,6.0,12.0,72,0.00,,SKC,0.00,VWS V14.01,2013-07-27 03:49:00,
2013-07-26 22:54:00,85.2,75.2,29.93,SSE,154,5.0,12.0,72,0.00,,SKC,0.00,VWS V14.01,2013-07-27 03:54:00,
2013-07-26 22:59:00,84.9,75.3,29.93,South,169,3.0,14.0,73,0.00,,SKC,0.00,VWS V14.01,2013-07-27 03:59:00,
2013-07-26 23:00:00,84.8,75.2,29.93,SSE,148,16.0,16.0,73,0.00,,SKC,0.00,VWS V14.01,2013-07-27 04:00:00,
2013-07-26 23:01:00,84.8,75.2,29.93,SSE,153,5.0,14.0,73,0.00,,SKC,0.00,VWS V14.01,2013-07-27 04:01:00,
2013-07-26 23:06:00,84.6,75.0,29.92,SE,146,6.0,16.0,73,0.00,,SKC,0.00,VWS V14.01,2013-07-27 04:06:00,
2013-07-26 23:11:00,84.4,74.8,29.92,South,181,8.0,16.0,73,0.00,,SKC,0.00,VWS V14.01,2013-07-27 04:11:00,
2013-07-26 23:16:00,84.2,75.0,29.93,SE,144,4.0,16.0,74,0.00,,SKC,0.00,VWS V14.01,2013-07-27 04:16:00,
2013-07-26 23:21:00,84.0,74.8,29.93,SSE,150,2.0,16.0,74,0.00,,SKC,0.00,VWS V14.01,2013-07-27 04:21:00,
2013-07-26 23:26:00,83.9,74.7,29.93,SSE,148,6.0,16.0,74,0.00,,SKC,0.00,VWS V14.01,2013-07-27 04:26:00,
2013-07-26 23:30:00,83.7,74.5,29.92,SSE,152,3.0,16.0,74,0.00,,SKC,0.00,VWS V14.01,2013-07-27 04:30:00,
2013-07-26 23:31:00,83.7,74.5,29.92,SSE,153,3.0,16.0,74,0.00,,SKC,0.00,VWS V14.01,2013-07-27 04:31:00,
2013-07-26 23:36:00,83.5,74.8,29.92,SE,146,6.0,10.0,75,0.00,,SKC,0.00,VWS V14.01,2013-07-27 04:36:00,
2013-07-26 23:41:00,83.3,74.6,29.92,SSE,148,4.0,10.0,75,0.00,,SKC,0.00,VWS V14.01,2013-07-27 04:41:00,
2013-07-26 23:46:00,83.1,74.4,29.92,SE,138,5.0,12.0,75,0.00,,SKC,0.00,VWS V14.01,2013-07-27 04:46:00,
2013-07-26 23:51:00,82.9,73.8,29.92,SSE,147,6.0,14.0,74,0.00,,SKC,0.00,VWS V14.01,2013-07-27 04:51:00,
2013-07-26 23:56:00,82.8,73.7,29.92,South,175,3.0,15.0,74,0.00,,SKC,0.00,VWS V14.01,2013-07-27 04:56:00,